[[{"header":{"parameterUnit":"m.s-1","parameterCategory":1,"la1":30.2991,"la2":30.254,"lo1":-89.0895,"lo2":-89.0444,"dy":0.0017,"dx":0.0017,"nx":28,"ny":28,"refTime":"2023-09-29T21:00:00:Z","depth":0,"parameterNumber":2,"parameterNumberName":"U-component_of_WINDS"},"data":[0,0,0,0,0,0,0,0,0,0,0,0,0,0,0,0,0,0,0,0,0,0,0,0,0,0,0,0,0,0,0,0,0,0,0,0,0,0,0,0,0,0,0,0,0,0,0,0,0,0,0,0,0,0,0,0,0,0,-3.2142,-3.2142,0,-3.2196,-3.2196,-3.2197,-3.2068,-3.2064,-3.2059,-3.2056,-3.2112,-3.2117,-3.2123,0,0,0,0,0,0,0,0,0,0,0,0,0,-3.1928,-3.1933,-3.2141,-3.2142,-3.2143,-3.2196,-3.2196,-3.2197,-3.2068,-3.2063,-3.2058,-3.2054,-3.2111,-3.2117,-3.2123,0,0,0,0,0,0,0,0,0,0,0,0,0,-3.2005,-3.1934,-3.2141,-3.2085,-3.208,-3.2195,-3.2196,-3.2197,-3.2069,-3.2063,-3.2057,-3.2051,-3.2108,-3.2116,-3.2124,-3.2297,0,0,-3.2149,-3.2152,0,0,0,0,0,0,0,0,-3.2001,-3.2013,-3.2093,-3.2089,-3.2084,-3.2118,-3.2142,-3.2231,-3.2071,-3.2074,-3.2055,-3.2048,-3.2119,-3.2126,-3.215,-3.2299,-3.2302,-3.2149,-3.2154,-3.2158,-3.216,0,0,0,0,0,0,0,-3.1996,-3.201,-3.2163,-3.2094,-3.2089,-3.2057,-3.2062,-3.2158,-3.213,-3.2073,-3.2064,-3.2072,-3.2116,-3.2142,-3.215,-3.2303,-3.2149,-3.2156,-3.2161,-3.2164,-3.2598,-3.2604,0,0,0,0,0,0,-3.1998,-3.2007,-3.2161,-3.2164,-3.2027,-3.2066,-3.2071,-3.2114,-3.2129,-3.2125,-3.2077,-3.2066,-3.2132,-3.2141,-3.2152,-3.2356,-3.2158,-3.2165,-3.217,-3.2591,-3.2599,-3.2607,0,0,0,0,0,0,-3.1994,-3.2013,-3.2159,-3.2083,-3.2099,-3.2076,-3.2126,-3.2118,-3.2144,-3.2132,-3.2127,-3.2109,-3.2127,-3.214,-3.2262,-3.2356,-3.2169,-3.2176,-3.2583,-3.2594,-3.2603,-3.2766,0,0,0,0,0,0,-3.1988,-3.2012,-3.2077,-3.2086,-3.2104,-3.2268,-3.2131,-3.2124,-3.2158,-3.2144,-3.2161,-3.2158,-3.2124,-3.2251,-3.227,-3.2364,-3.2182,-3.2575,-3.2588,-3.26,-3.2752,-3.2781,-3.2805,0,0,0,0,0,-3.1981,-3.2121,-3.2081,-3.21,-3.2185,-3.2274,-3.2284,-3.2242,-3.2166,-3.2232,-3.2224,-3.2157,-3.2343,-3.2264,-3.2285,-3.2383,-3.2569,-3.2584,-3.2599,-3.2741,-3.2775,-3.2804,0,0,0,0,0,0,-3.2124,-3.2121,-3.2077,-3.2223,-3.225,-3.2252,-3.2333,-3.228,-3.2329,-3.2313,-3.2258,-3.2263,-3.2396,-3.2401,-3.2314,-3.2551,-3.2443,-3.2463,-3.2544,-3.2576,-3.2602,-3.2599,-3.2189,0,0,0,0,0,-3.2173,-3.2245,-3.2238,-3.2368,-3.2384,-3.2357,-3.2394,-3.2359,-3.2385,-3.2395,-3.2396,-3.2424,-3.2488,-3.2532,-3.259,-3.2752,-3.2755,-3.2829,-3.2855,-3.2877,-3.2896,-3.2983,-3.3017,-3.2656,-3.2656,-3.2656,0,0,-3.2274,-3.2281,-3.233,-3.2397,-3.2414,-3.2491,-3.2367,-3.2453,-3.251,-3.2408,-3.2524,-3.2525,-3.2553,-3.2695,-3.2758,-3.2704,-3.2996,-3.2896,-3.2914,-3.2921,-3.3002,-3.3037,-3.3067,-3.2667,-3.2665,-3.2663,0,0,-3.2498,-3.251,-3.2621,-3.264,-3.2667,-3.2648,-3.2674,-3.2685,-3.2682,-3.2797,-3.2722,-3.2789,-3.2901,-3.2924,-3.295,-3.3185,-3.3126,-3.3205,-3.3343,-3.3429,-3.3458,-3.3483,-3.3568,-3.3599,-3.3223,-3.3223,-3.3224,0,-3.2621,-3.2734,-3.2685,-3.2777,-3.2809,-3.272,-3.2832,-3.2853,-3.2898,-3.2923,-3.286,-3.3,-3.3012,-3.316,-3.3217,-3.324,-3.3271,-3.3204,-3.3457,-3.3482,-3.3504,-3.3586,-3.3618,-3.3233,-3.3232,-3.3231,-3.323,0,-3.2885,-3.2964,-3.305,-3.3096,-3.3138,-3.324,-3.3206,-3.3255,-3.3216,-3.3204,-3.3323,-3.3334,-3.3394,-3.3426,-3.3389,-3.3569,-3.3535,-3.3466,-3.3356,-3.3549,-3.3625,-3.3655,-3.3247,-3.3244,-3.3241,-3.3238,0,0,-3.3202,-3.3219,-3.3252,-3.3272,-3.3295,-3.3356,-3.3454,-3.3512,-3.3556,-3.3589,-3.3672,-3.3769,-3.3705,-3.3736,-3.37,-3.3775,-3.3963,-3.3697,-3.3697,-3.3748,-3.4165,-3.4218,-3.4255,-3.3923,-3.3928,-3.3933,-3.4163,0,-3.3425,-3.3594,-3.3553,-3.372,-3.3794,-3.371,-3.3796,-3.382,-3.3811,-3.3873,-3.3863,-3.3934,-3.3843,-3.3861,-3.3932,-3.3925,-3.4046,-3.3908,-3.4,-3.4004,-3.3999,-3.4294,-3.435,-3.4567,-3.4192,-3.4197,-3.4201,0,-3.3709,-3.3754,-3.3929,-3.3941,-3.3971,-3.4049,-3.41,-3.4159,-3.4185,-3.4173,-3.4208,-3.4158,-3.4256,-3.4144,-3.4279,-3.4186,-3.4221,-3.4224,-3.4231,-3.424,-3.4116,-3.4313,-3.4635,-3.4669,-3.4246,-3.4243,-3.4239,0,-3.3926,-3.403,-3.4149,-3.4168,-3.4185,-3.4242,-3.4251,-3.4271,-3.4309,-3.4354,-3.4378,-3.4434,-3.4465,-3.4509,-3.4476,-3.4397,-3.4618,-3.4503,-3.4613,-3.4614,-3.4665,-3.4663,-3.5,-3.4684,-3.4684,-3.4683,-3.4682,0,-3.4181,-3.4292,-3.4246,-3.432,-3.4442,-3.4393,-3.4516,-3.4516,-3.4534,-3.4606,-3.4537,-3.4606,-3.4557,-3.4623,-3.4597,-3.4715,-3.4729,-3.4723,-3.4716,-3.4731,-3.4732,-3.4755,-3.474,-3.4692,-3.469,-3.4688,-3.4686,0,-3.4445,-3.4418,-3.4543,-3.4548,-3.4552,-3.4642,-3.4647,-3.4716,-3.4701,-3.4794,-3.4813,-3.4792,-3.4866,-3.4837,-3.4915,-3.4898,-3.5049,-3.502,-3.5041,-3.5034,-3.5147,-3.5138,-3.5512,-3.556,-3.5212,-3.5215,-3.5218,0,-3.461,-3.4694,-3.4709,-3.4752,-3.4767,-3.4838,-3.4876,-3.4832,-3.4875,-3.4911,-3.4976,-3.5044,-3.5096,-3.5218,-3.5211,-3.527,-3.5244,-3.5371,-3.5253,-3.5266,-3.5249,-3.5246,-3.5255,-3.5396,-3.54,-3.5403,-3.5406,0,-3.4908,-3.4891,-3.495,-3.5005,-3.5053,-3.5095,-3.5129,-3.5169,-3.5126,-3.5179,-3.5254,-3.5294,-3.5374,-3.5444,-3.5497,-3.5507,-3.5451,-3.5443,-3.5472,-3.549,-3.5499,-3.5498,-3.5108,-3.5435,-3.5432,-3.543,-3.5428,-3.5427,-3.5129,-3.52,-3.5222,-3.5291,-3.5312,-3.5347,-3.5412,-3.5406,-3.5468,-3.553,-3.5499,-3.5587,-3.5611,-3.5678,-3.5696,-3.5764,-3.5715,-3.5756,-3.5767,-3.5779,-3.5795,-3.5487,-3.5774,-3.5773,-3.5772,-3.5771,-3.577,0,-3.5425,-3.5435,-3.5499,-3.555,-3.5604,-3.5545,-3.5581,-3.563,-3.5708,-3.5735,-3.5788,-3.5875,-3.5942,-3.594,-3.6001,-3.6057,-3.6033,-3.6075,-3.6072,-3.6076,-3.5834,-3.5804,-3.6094,-3.6094,-3.6094,-3.6094,-3.6094,-3.6093,-3.5586,-3.5704,-3.569,-3.5818,-3.5827,-3.5912,-3.5938,-3.597,-3.5992,-3.6093,-3.6148,-3.6145,-3.6161,-3.6224,-3.6283,-3.628,-3.6308,-3.636,-3.6349,-3.6124,-3.6092,-3.6062,-3.6033,-3.6366,-3.6367,-3.6584,-3.6586,-3.6588]},{"header":{"parameterUnit":"m.s-1","parameterCategory":1,"la1":30.2991,"la2":30.254,"lo1":-89.0895,"lo2":-89.0444,"dy":0.0017,"dx":0.0017,"nx":28,"ny":28,"refTime":"2023-09-29T21:00:00:Z","depth":0,"parameterNumber":3,"parameterNumberName":"V-component_of_WINDS"},"data":[0,0,0,0,0,0,0,0,0,0,0,0,0,0,0,0,0,0,0,0,0,0,0,0,0,0,0,0,0,0,0,0,0,0,0,0,0,0,0,0,0,0,0,0,0,0,0,0,0,0,0,0,0,0,0,0,0,0,-2.3455,-2.3455,0,-2.3446,-2.3446,-2.3446,-2.3427,-2.3427,-2.3426,-2.3426,-2.3415,-2.3415,-2.3416,0,0,0,0,0,0,0,0,0,0,0,0,0,-2.3454,-2.3454,-2.3455,-2.3455,-2.3455,-2.3446,-2.3446,-2.3446,-2.3427,-2.3427,-2.3426,-2.3426,-2.3415,-2.3415,-2.3416,0,0,0,0,0,0,0,0,0,0,0,0,0,-2.3451,-2.3454,-2.3455,-2.3445,-2.3444,-2.3446,-2.3446,-2.3446,-2.3427,-2.3427,-2.3426,-2.3426,-2.3415,-2.3415,-2.3416,-2.3427,0,0,-2.3416,-2.3416,0,0,0,0,0,0,0,0,-2.3451,-2.3451,-2.3446,-2.3446,-2.3444,-2.3437,-2.3441,-2.3439,-2.3428,-2.3434,-2.3426,-2.3426,-2.3423,-2.3422,-2.3422,-2.3427,-2.3426,-2.3416,-2.3416,-2.3416,-2.3416,0,0,0,0,0,0,0,-2.3451,-2.3451,-2.3452,-2.3446,-2.3445,-2.3439,-2.3438,-2.3441,-2.3431,-2.3433,-2.3432,-2.3431,-2.3422,-2.3422,-2.3422,-2.3426,-2.3416,-2.3416,-2.3416,-2.3416,-2.3436,-2.3437,0,0,0,0,0,0,-2.3453,-2.3451,-2.3452,-2.3451,-2.3446,-2.344,-2.3439,-2.344,-2.3431,-2.343,-2.3431,-2.343,-2.3422,-2.3421,-2.3421,-2.3432,-2.3416,-2.3416,-2.3416,-2.3436,-2.3437,-2.3437,0,0,0,0,0,0,-2.3453,-2.3453,-2.3452,-2.3451,-2.345,-2.3441,-2.3442,-2.344,-2.344,-2.343,-2.3428,-2.3433,-2.3422,-2.3421,-2.3425,-2.3432,-2.3416,-2.3416,-2.3435,-2.3436,-2.3437,-2.3455,0,0,0,0,0,0,-2.3453,-2.3454,-2.3459,-2.3451,-2.345,-2.3458,-2.3443,-2.344,-2.344,-2.3438,-2.3431,-2.3429,-2.3421,-2.3425,-2.3425,-2.3431,-2.3416,-2.3435,-2.3436,-2.3437,-2.3454,-2.3457,-2.3459,0,0,0,0,0,-2.3453,-2.3465,-2.3459,-2.3459,-2.3457,-2.3458,-2.3457,-2.3448,-2.3441,-2.3445,-2.3438,-2.3429,-2.3431,-2.3426,-2.3426,-2.3432,-2.3434,-2.3435,-2.3437,-2.3453,-2.3456,-2.3459,0,0,0,0,0,0,-2.3473,-2.3464,-2.3457,-2.3467,-2.3463,-2.3455,-2.346,-2.3452,-2.3451,-2.3449,-2.3437,-2.3435,-2.3441,-2.3437,-2.3431,-2.3441,-2.3431,-2.3432,-2.3444,-2.3446,-2.3449,-2.3449,-2.3416,0,0,0,0,0,-2.3479,-2.3481,-2.3472,-2.3481,-2.348,-2.347,-2.3471,-2.3464,-2.3459,-2.3458,-2.3452,-2.3447,-2.3446,-2.3446,-2.3445,-2.3453,-2.3451,-2.3458,-2.346,-2.3462,-2.3463,-2.3465,-2.3467,-2.3441,-2.3441,-2.3441,0,0,-2.349,-2.3485,-2.3488,-2.3485,-2.3482,-2.3483,-2.3469,-2.3472,-2.3473,-2.3458,-2.3461,-2.3456,-2.3451,-2.3456,-2.3459,-2.3453,-2.3469,-2.3463,-2.3465,-2.3465,-2.3466,-2.3468,-2.3471,-2.3442,-2.3441,-2.3441,0,0,-2.3512,-2.3509,-2.3515,-2.3511,-2.3506,-2.3499,-2.3501,-2.3493,-2.3489,-2.3492,-2.348,-2.348,-2.348,-2.3476,-2.3474,-2.3491,-2.3482,-2.3491,-2.3503,-2.3505,-2.3507,-2.3508,-2.3513,-2.3515,-2.3492,-2.3492,-2.3492,0,-2.3527,-2.3529,-2.3519,-2.3522,-2.352,-2.3507,-2.3512,-2.3509,-2.3503,-2.3502,-2.3496,-2.3494,-2.3489,-2.3492,-2.3496,-2.3496,-2.3495,-2.3491,-2.3507,-2.3509,-2.351,-2.3514,-2.3516,-2.3493,-2.3493,-2.3493,-2.3492,0,-2.3547,-2.3548,-2.3554,-2.3548,-2.3547,-2.3552,-2.3541,-2.3541,-2.3533,-2.3527,-2.3529,-2.3522,-2.3519,-2.3519,-2.3512,-2.3521,-2.3517,-2.351,-2.3499,-2.3514,-2.3518,-2.3519,-2.3494,-2.3494,-2.3494,-2.3493,0,0,-2.3582,-2.3569,-2.3571,-2.3567,-2.3559,-2.356,-2.3563,-2.3559,-2.3558,-2.3555,-2.3555,-2.3554,-2.3546,-2.3543,-2.3536,-2.3537,-2.3549,-2.3529,-2.3529,-2.3532,-2.3556,-2.3561,-2.3563,-2.3543,-2.3543,-2.3543,-2.3556,0,-2.36,-2.3604,-2.3594,-2.36,-2.3601,-2.3587,-2.3588,-2.3583,-2.3576,-2.3575,-2.3567,-2.3566,-2.3556,-2.3554,-2.3556,-2.3547,-2.3553,-2.3546,-2.3542,-2.3542,-2.3543,-2.3565,-2.3571,-2.3583,-2.3557,-2.3558,-2.3558,0,-2.3623,-2.3619,-2.3626,-2.3615,-2.3615,-2.3617,-2.3611,-2.3611,-2.3603,-2.3598,-2.3594,-2.3585,-2.3585,-2.3575,-2.3574,-2.3569,-2.3567,-2.3562,-2.3562,-2.3561,-2.3551,-2.3563,-2.3587,-2.3589,-2.356,-2.356,-2.356,0,-2.3646,-2.3643,-2.3645,-2.3643,-2.3631,-2.3632,-2.3628,-2.362,-2.3617,-2.3612,-2.361,-2.3606,-2.3603,-2.3599,-2.3587,-2.3582,-2.3587,-2.3577,-2.3582,-2.3582,-2.3583,-2.3583,-2.3606,-2.3583,-2.3583,-2.3583,-2.3583,0,-2.3667,-2.3671,-2.3655,-2.3657,-2.366,-2.3647,-2.3651,-2.3644,-2.3637,-2.3636,-2.3624,-2.3623,-2.3608,-2.3606,-2.3597,-2.3596,-2.3595,-2.359,-2.3588,-2.3591,-2.3591,-2.3589,-2.3587,-2.3584,-2.3583,-2.3583,-2.3583,0,-2.3693,-2.3683,-2.3684,-2.3673,-2.367,-2.3672,-2.3662,-2.3662,-2.3654,-2.3653,-2.3652,-2.3639,-2.3635,-2.3623,-2.3616,-2.361,-2.3611,-2.3607,-2.3614,-2.3612,-2.3617,-2.3616,-2.3638,-2.364,-2.3617,-2.3617,-2.3618,0,-2.3707,-2.3709,-2.3698,-2.3696,-2.3691,-2.3689,-2.3687,-2.3674,-2.3671,-2.3662,-2.3663,-2.3658,-2.3653,-2.3646,-2.3636,-2.363,-2.3625,-2.3633,-2.3624,-2.3626,-2.3623,-2.3623,-2.3622,-2.3635,-2.3635,-2.3635,-2.3635,0,-2.3732,-2.3726,-2.3723,-2.3717,-2.3714,-2.3709,-2.3704,-2.3703,-2.3688,-2.3686,-2.3681,-2.3677,-2.3669,-2.3664,-2.3656,-2.3649,-2.3639,-2.3638,-2.3639,-2.3642,-2.3645,-2.3642,-2.3618,-2.3638,-2.3637,-2.3637,-2.3637,-2.3637,-2.3752,-2.3752,-2.3743,-2.374,-2.3734,-2.3728,-2.3727,-2.3718,-2.3714,-2.3707,-2.3699,-2.3695,-2.3686,-2.3674,-2.3668,-2.3664,-2.3659,-2.366,-2.366,-2.366,-2.3661,-2.3646,-2.3662,-2.3662,-2.3662,-2.3662,-2.3662,0,-2.3775,-2.3768,-2.3765,-2.3756,-2.3753,-2.3744,-2.3736,-2.3734,-2.373,-2.3722,-2.3717,-2.3711,-2.3705,-2.3693,-2.3686,-2.3684,-2.368,-2.3683,-2.3682,-2.3681,-2.3667,-2.3666,-2.3687,-2.3687,-2.3687,-2.3687,-2.3687,-2.3687,-2.3786,-2.3786,-2.3779,-2.3776,-2.3769,-2.3764,-2.3761,-2.3755,-2.3748,-2.3742,-2.3736,-2.3729,-2.3719,-2.371,-2.3704,-2.37,-2.3698,-2.3702,-2.3697,-2.3684,-2.3682,-2.368,-2.3679,-2.3702,-2.3702,-2.3711,-2.3712,-2.3712]}]]